Mumbai, India

11:24 AM IST on July 26, 2017 (GMT +0530)
Chhatrapati Shivaji International

Weather History for VABB - February, 2013

Change the Weather History Date:

Sunday, February 24, 2013

  Actual Average Record
Temperature  
Mean Temperature 76 °F -  
Max Temperature 92 °F 89 °F 100 °F (2006)
Min Temperature 60 °F 70 °F 60 °F (2013)
Cooling Degree Days 11    
Growing Degree Days 26 (Base 50)    
Moisture  
Dew Point 58 °F    
Average Humidity 50    
Maximum Humidity 78    
Minimum Humidity 17    
Precipitation  
Precipitation 0.00 in - - ()
Sea Level Pressure  
Sea Level Pressure 29.93 in    
Wind  
Wind Speed 5 mph ()    
Max Wind Speed 16 mph    
Max Gust Speed 23 mph    
Visibility 2.3 miles    
Events      
Averages and records for this station are not official NWS values.
T = Trace of Precipitation, MM = Missing Value Source: Averaged Metar Reports

Daily Weather History Graph

Daily Weather History Graph

Search for Another Location

Airport or City:

Trip Planner

Search our weather history database for the weather conditions in past years. The results will help you decide how hot, cold, wet, or windy it might be!

Date:

Astronomy

Feb. 24, 2013 Rise Set
Actual Time 7:01 AM IST 6:42 PM IST
Civil Twilight 6:39 AM IST 7:04 PM IST
Nautical Twilight 6:13 AM IST 7:30 PM IST
Astronomical Twilight 5:48 AM IST 7:55 PM IST
Moon 5:29 PM IST (2/24) 5:36 AM IST (2/24)
Length of Visible Light 12h 25m
Length of Day
11h 40m
Waxing Gibbous, 97% of the Moon is Illuminated
Feb 24
Waxing Gibbous
Feb 26
Full
Mar 5
Last Quarter
Mar 12
New
Mar 19
First Quarter

Hourly Weather History & Observations

Time (IST) Temp. Heat Index Dew Point Humidity Pressure Visibility Wind Dir Wind Speed Gust Speed Precip Events Conditions
12:10 AM 77.0 °F - 59.0 °F 54% 29.95 in 1.4 mi NNE 3.5 mph - N/A   Haze
12:40 AM 75.2 °F - 60.8 °F 61% 29.95 in 1.6 mi North 5.8 mph - N/A   Haze
1:10 AM 77.0 °F - 60.8 °F 57% 29.95 in 1.5 mi NNE 3.5 mph - N/A   Haze
1:40 AM 75.2 °F - 60.8 °F 61% 29.95 in 1.6 mi North 4.6 mph - N/A   Haze
2:10 AM 75.2 °F - 62.6 °F 65% 29.95 in 1.7 mi NE 4.6 mph - N/A   Haze
2:30 AM 68 °F - 62 °F 76% 29.94 in 1 mi Calm Calm - -   Haze
3:10 AM 75.2 °F - 66.2 °F 73% 29.92 in 1.9 mi NNW 6.9 mph - N/A   Haze
3:40 AM 75.2 °F - 66.2 °F 73% 29.92 in 1.9 mi North 6.9 mph - N/A   Haze
4:10 AM 73.4 °F - 66.2 °F 78% 29.92 in 1.9 mi NNW 5.8 mph - N/A   Haze
4:40 AM 73.4 °F - 64.4 °F 73% 29.92 in 1.9 mi North 4.6 mph - N/A   Haze
5:10 AM 73.4 °F - 62.6 °F 69% 29.92 in 1.9 mi NE 3.5 mph - N/A   Haze
5:30 AM 68 °F - 62 °F 76% 29.94 in 1 mi Calm Calm - -   Haze
5:40 AM 71.6 °F - 60.8 °F 69% 29.92 in 1.9 mi NNE 4.6 mph - N/A   Haze
6:10 AM 73.4 °F - 60.8 °F 65% 29.92 in 1.5 mi NE 5.8 mph - N/A   Haze
6:40 AM 73.4 °F - 60.8 °F 65% 29.95 in 1.6 mi North 3.5 mph - N/A   Haze
7:10 AM 73.4 °F - 60.8 °F 65% 29.95 in 1.4 mi Variable 2.3 mph - N/A   Haze
8:10 AM 73.4 °F - 59.0 °F 61% 29.98 in 1.1 mi SE 3.5 mph - N/A   Smoke
8:30 AM 70 °F - 59 °F 59% 29.99 in 1 mi Calm Calm - -   Smoke
8:40 AM 75.2 °F - 57.2 °F 53% 29.98 in 1.1 mi ESE 4.6 mph - N/A   Smoke
9:10 AM 77.0 °F - 53.6 °F 44% 30.01 in 1.4 mi East 4.6 mph - N/A   Smoke
10:10 AM 82.4 °F - 48.2 °F 30% 30.01 in 1.7 mi NNE 11.5 mph - N/A   Smoke
11:10 AM 86.0 °F - 50.0 °F 29% 30.01 in 2.2 mi NNE 6.9 mph - N/A   Smoke
11:30 AM 89 °F - 50 °F 17% 29.99 in 1 mi NE 3.5 mph - -   Smoke
11:40 AM 86.0 °F - 50.0 °F 29% 29.98 in 2.2 mi NE 9.2 mph - N/A   Smoke
12:10 PM 87.8 °F - 48.2 °F 25% 29.98 in 2.2 mi NE 8.1 mph - N/A   Smoke
12:40 PM 89.6 °F - 48.2 °F 24% 29.95 in 2.2 mi West 6.9 mph - N/A   Smoke
1:10 PM 89.6 °F 87.7 °F 55.4 °F 31% 29.92 in - West 11.5 mph - N/A   Smoke
1:40 PM 87.8 °F 86.5 °F 57.2 °F 35% 29.92 in 2.8 mi WNW 11.5 mph - N/A   Smoke
2:30 PM 90 °F - 56 °F 22% 29.90 in 1 mi NNW 13.8 mph - -   Smoke
2:40 PM 87.8 °F 86.5 °F 57.2 °F 35% 29.89 in 3.1 mi WNW 12.7 mph - N/A   Smoke
3:10 PM 87.8 °F 85.7 °F 53.6 °F 31% 29.89 in 3.1 mi WNW 11.5 mph - N/A   Smoke
3:40 PM 86.0 °F 84.2 °F 53.6 °F 33% 29.86 in 3.7 mi NW 11.5 mph - N/A   Unknown
4:10 PM 86.0 °F 84.5 °F 55.4 °F 35% 29.86 in 3.7 mi NW 11.5 mph - N/A   Unknown
4:40 PM 86.0 °F 84.5 °F 55.4 °F 35% 29.86 in 3.7 mi NW 11.5 mph 23.0 mph N/A   Unknown
5:10 PM 84.2 °F 83.0 °F 55.4 °F 37% 29.89 in 4.3 mi NW 10.4 mph - N/A   Unknown
5:30 PM 83 °F - 54 °F 26% 29.89 in 1 mi NNW 16.1 mph - -   Smoke
5:40 PM 84.2 °F 82.8 °F 53.6 °F 35% 29.89 in 4.3 mi NW 10.4 mph - N/A   Unknown
6:10 PM 80.6 °F 80.5 °F 55.4 °F 42% 29.89 in 4.3 mi NW 9.2 mph - N/A   Unknown
6:40 PM 80.6 °F 80.5 °F 55.4 °F 42% 29.89 in 3.7 mi NNW 10.4 mph - N/A   Unknown
7:10 PM 78.8 °F - 57.2 °F 47% 29.92 in 3.7 mi North 6.9 mph - N/A   Unknown
7:40 PM 78.8 °F - 57.2 °F 47% 29.92 in 3.7 mi NW 4.6 mph - N/A   Unknown
8:10 PM 77.0 °F - 59.0 °F 54% 29.92 in 3.7 mi NNW 5.8 mph - N/A   Unknown
8:30 PM 75 °F - 60 °F 51% 29.92 in 1 mi North 4.6 mph - -   Smoke
8:40 PM 77.0 °F - 59.0 °F 54% 29.92 in 3.7 mi Variable 3.5 mph - N/A   Unknown
9:10 PM 77.0 °F - 59.0 °F 54% 29.95 in 3.7 mi NW 3.5 mph - N/A   Unknown
10:10 PM 75.2 °F - 59.0 °F 57% 29.95 in 2.8 mi Calm Calm - N/A   Smoke
10:40 PM 75.2 °F - 60.8 °F 61% 29.95 in 2.5 mi Calm Calm - N/A   Smoke
11:10 PM 75.2 °F - 60.8 °F 61% 29.95 in 2.5 mi South 4.6 mph - N/A   Smoke
11:30 PM 65 °F - 58 °F 71% 29.94 in 1 mi Calm Calm - -   Haze
11:40 PM 75.2 °F - 60.8 °F 61% 29.95 in 2.2 mi Calm Calm - N/A   Smoke